This demonstration page uses our WeatherBlox Daily Observations layout. Learn more.

Hourly Observations for February 22, 2020

Temp ( °F °C ) Dew Point ( °F °C ) Humidity (%) Winds ( mph kmh ) Pressure ( in mb ) Visibility ( mi km ) Precip ( " mm )
12:15 am 00:15 Clear 32 0.1 30 -1.3 90 90 SSW 6 9 30.22 1024 10 16.0934 0 0
12:35 am 00:35 Clear 32 0.2 30 -1 92 92 SW 6 9 30.22 1023 10 16.0934 0 0
12:55 am 00:55 Clear 32 -0.2 29 -1.5 91 91 S 6 9 30.23 1024 10 16.0934 0 0
1:15 am 01:15 Clear 32 0 30 -1 93 93 SSW 7 11 30.22 1023 10 16.0934 0 0
1:35 am 01:35 Clear 30 -0.9 28 -2.1 92 92 SSW 3 6 30.21 1023 7 11.26538 0 0
1:55 am 01:55 Clear 30 -1 28 -2 93 93 SSW 6 9 30.21 1023 7 11.26538 0 0
2:15 am 02:15 Clear 29 -1.6 27 -2.7 92 92 SSW 5 7 30.21 1023 7 11.26538 0 0
2:35 am 02:35 Clear 29 -1.9 27 -2.7 94 94 SSW 6 9 30.2 1023 7 11.26538 0 0
2:55 am 02:55 Clear 29 -1.6 28 -2.4 94 94 SW 5 7 30.2 1023 7 11.26538 0 0
3:15 am 03:15 Clear 30 -1.2 28 -2 94 94 SW 5 7 30.18 1022 7 11.26538 0 0
3:35 am 03:35 Clear 29 -1.8 27 -2.9 92 92 SSW 8 13 30.18 1022 7 11.26538 0 0
3:55 am 03:55 Clear with Mist and Fog 27 -2.7 26 -3.6 94 94 SW 5 7 30.18 1022 5 8.0467 0 0
4:15 am 04:15 Clear with Mist and Fog 28 -2.1 27 -2.9 94 94 SSW 6 9 30.17 1022 5 8.0467 0 0
4:35 am 04:35 Clear with Mist and Fog 27 -2.9 26 -3.6 95 95 SW 7 11 30.17 1022 5 8.0467 0 0
4:55 am 04:55 Clear with Mist and Fog 26 -3.2 25 -3.9 95 95 SW 3 6 30.19 1022 5 8.0467 0 0
5:15 am 05:15 Clear with Mist and Fog 24 -4.4 23 -5.1 95 95 Calm 30.19 1022 5 8.0467 0 0
5:35 am 05:35 Clear with Mist and Fog 20 -6.7 19 -7.5 94 94 Calm 30.21 1023 5 8.0467 0 0
5:55 am 05:55 Clear with Mist and Fog 22 -5.7 20 -6.4 95 95 Calm 30.21 1023 5 8.0467 0 0
6:15 am 06:15 Clear with Mist and Fog 22 -5.5 21 -6.1 96 96 Calm 30.21 1023 5 8.0467 0 0
6:35 am 06:35 Clear with Mist and Fog 22 -5.7 20 -6.5 94 94 SSW 3 6 30.2 1023 5 8.0467 0 0
6:55 am 06:55 Clear 24 -4.3 23 -5 95 95 S 5 7 30.18 1022 10 16.0934 0 0
7:15 am 07:15 Clear 23 -4.8 22 -5.6 94 94 Calm 30.18 1022 10 16.0934 0 0
7:35 am 07:35 Sunny 21 -6.3 19 -7.1 94 94 S 3 6 30.2 1023 10 16.0934 0 0
7:55 am 07:55 Sunny 22 -5.8 20 -6.6 94 94 S 6 9 30.18 1022 10 16.0934 0 0
8:15 am 08:15 Sunny 23 -5.1 22 -5.8 95 95 S 8 13 30.18 1022 10 16.0934 0 0
8:35 am 08:35 Sunny 25 -3.7 24 -4.5 94 94 WSW 3 6 30.18 1022 10 16.0934 0 0
8:55 am 08:55 Sunny 28 -2.4 26 -3.2 94 94 Calm 30.17 1022 10 16.0934 0 0
9:15 am 09:15 Sunny 29 -1.5 27 -2.8 91 91 SW 3 6 30.16 1021 10 16.0934 0 0
9:35 am 09:35 Sunny 30 -1.1 28 -2.5 90 90 SSW 5 7 30.17 1022 10 16.0934 0 0
9:55 am 09:55 Sunny 31 -0.3 28 -2.1 88 88 WSW 6 9 30.16 1021 10 16.0934 0 0
10:15 am 10:15 Sunny 32 0.2 29 -1.5 89 89 SSW 9 15 30.14 1021 10 16.0934 0 0
10:35 am 10:35 Sunny 33 0.6 29 -1.4 87 87 SW 7 11 30.14 1021 10 16.0934 0 0
10:55 am 10:55 Sunny 35 1.7 30 -1.2 81 81 SW 7 11 30.13 1020 10 16.0934 0 0
11:15 am 11:15 Sunny 37 2.9 30 -1 76 76 SW 9 15 30.12 1020 10 16.0934 0 0
11:35 am 11:35 Sunny 40 4.7 30 -1 67 67 SW 9 15 30.09 1019 10 16.0934 0 0
11:55 am 11:55 Sunny 43 6.3 29 -1.4 58 58 SW 8 13 30.06 1018 10 16.0934 0 0
12:15 pm 12:15 Sunny 48 9 29 -1.7 47 47 SW 9 15 30.02 1017 10 16.0934 0 0
12:35 pm 12:35 Sunny 53 11.9 28 -2.4 37 37 SW 10 17 29.99 1015 10 16.0934 0 0
12:55 pm 12:55 Sunny 57 13.8 26 -3.3 31 31 SW 9 15 29.96 1015 10 16.0934 0 0
1:15 pm 13:15 Sunny 59 15 26 -3.6 28 28 SW 10 17 29.93 1014 10 16.0934 0 0
1:35 pm 13:35 Sunny 60 15.8 24 -4.2 25 25 WSW 10 17 29.91 1013 10 16.0934 0 0
1:55 pm 13:55 Sunny 61 16.1 25 -4.1 25 25 SW 14 22 29.9 1013 10 16.0934 0 0
2:15 pm 14:15 Sunny 61 16.2 25 -3.7 25 25 SW 10 17 29.89 1012 10 16.0934 0 0
2:35 pm 14:35 Sunny 63 17.1 25 -3.9 24 24 SW 12 19 29.87 1012 10 16.0934 0 0
2:55 pm 14:55 Sunny 62 16.8 24 -4.5 23 23 SW 10 17 29.87 1012 10 16.0934 0 0
3:15 pm 15:15 Sunny 63 17.1 23 -4.9 22 22 SW 12 19 29.87 1012 10 16.0934 0 0
3:35 pm 15:35 Sunny 64 18 22 -5.4 20 20 SW 10 17 29.86 1011 10 16.0934 0 0
3:55 pm 15:55 Sunny 65 18.2 20 -6.7 18 18 SSW 12 19 29.85 1011 10 16.0934 0 0
4:15 pm 16:15 Sunny 65 18.4 20 -6.6 18 18 WSW 7 11 29.85 1011 10 16.0934 0 0
4:35 pm 16:35 Sunny 65 18.5 14 -10 13 13 WNW 12 19 29.86 1011 10 16.0934 0 0
4:55 pm 16:55 Sunny 62 16.9 19 -7 19 19 NW 12 19 29.88 1012 10 16.0934 0 0
5:15 pm 17:15 Sunny 60 15.8 19 -7 20 20 NW 10 17 29.89 1012 10 16.0934 0 0
5:35 pm 17:35 Sunny 58 14.6 19 -7 22 22 NW 8 13 29.91 1013 10 16.0934 0 0
5:55 pm 17:55 Sunny 54 12.3 19 -7 26 26 NW 7 11 29.93 1014 10 16.0934 0 0
6:15 pm 18:15 Sunny 51 10.5 19 -7.1 29 29 NW 6 9 29.95 1014 10 16.0934 0 0
6:35 pm 18:35 Clear 50 9.8 19 -7.1 30 30 NNW 7 11 29.95 1014 10 16.0934 0 0
6:55 pm 18:55 Clear 45 7.4 18 -7.6 34 34 NNW 7 11 29.99 1015 10 16.0934 0 0
7:15 pm 19:15 Clear 41 5 17 -8.2 38 38 Calm 30.01 1016 10 16.0934 0 0
7:35 pm 19:35 Clear 40 4.3 18 -8 41 41 NW 3 6 30.01 1016 10 16.0934 0 0
7:55 pm 19:55 Clear 37 2.9 17 -8.2 44 44 NW 5 7 30.04 1017 10 16.0934 0 0
8:15 pm 20:15 Clear 39 3.9 18 -8 42 42 NNW 7 11 30.03 1017 10 16.0934 0 0
8:35 pm 20:35 Clear 36 2.4 17 -8.1 46 46 Calm 30.04 1017 10 16.0934 0 0
8:55 pm 20:55 Clear 37 3 19 -7.1 48 48 N 8 13 30.03 1017 10 16.0934 0 0
9:15 pm 21:15 Clear 40 4.2 20 -6.7 45 45 N 6 9 30.02 1016 10 16.0934 0 0
9:35 pm 21:35 Clear 38 3.4 20 -6.7 48 48 Calm 30.03 1017 10 16.0934 0 0
9:55 pm 21:55 Clear 38 3.2 20 -6.8 48 48 Calm 30.03 1017 10 16.0934 0 0
10:15 pm 22:15 Clear 35 1.6 20 -6.6 55 55 Calm 30.05 1018 10 16.0934 0 0
10:35 pm 22:35 Clear 33 0.4 21 -6.3 61 61 Calm 30.05 1018 10 16.0934 0 0
10:55 pm 22:55 Clear 31 -0.3 20 -6.8 62 62 Calm 30.06 1018 10 16.0934 0 0
11:15 pm 23:15 Clear 30 -1 19 -7 64 64 Calm 30.05 1018 10 16.0934 0 0
11:35 pm 23:35 Clear 31 -0.8 20 -6.9 64 64 Calm 30.05 1018 10 16.0934 0 0
11:55 pm 23:55 Clear 31 -0.8 19 -7 63 63 Calm 30.05 1018 10 16.0934 0 0

Powered by AerisWeather